Regional Weather Roundup
Issued by NWS

Home | Current Version | Previous Version | Graphics & Text | Print | Product List | Glossary On
Versions: 1 2 3 4 5 6 7 8 9 10 11 12 13 14 15 16 17 18 19 20 21 22 23 24 25 26 27 28 29 30 31 32 33 34 35 36 37 38 39 40 41 42 43 44 45 46 47 48 49 50
000
ASUS45 KSLC 161510
RWRUT

UTAH REGIONAL WEATHER ROUNDUP
NATIONAL WEATHER SERVICE SALT LAKE CITY UT
900 AM MDT TUE SEP 16 2014

UTZ001>011-023>025-161600-

NORTHERN UTAH

CITY           SKY/WX    TMP DP  RH WIND       PRES   REMARKS
HILL AFB       MOSUNNY   63  38  40 E18       30.14S
LOGAN          SUNNY     52  46  80 CALM      30.14S
OGDEN          MOSUNNY   66  40  38 S10       30.12R
PROVO AIRPORT  NOT AVBL
SALT LAKE CITY MOSUNNY   72  45  37 SE8       30.10S
VERNAL         SUNNY     63  46  54 S3        30.24S
WENDOVER       SUNNY     68  36  30 CALM      30.10S
HEBER CITY     SUNNY     52  43  71 CALM      30.25S
WEST JORDAN    SUNNY     73  41  31 SE13      30.12F

$$

UTZ012>022-026-027-161600-

SOUTHERN UTAH

CITY           SKY/WX    TMP DP  RH WIND       PRES   REMARKS
BRYCE CANYON   SUNNY     55  43  63 W3        30.39R
CEDAR CITY     SUNNY     62  43  49 W3        30.20S HAZE
MILFORD        SUNNY     60  43  53 S7        30.16S
MOAB/CYNLANDS  SUNNY     74  43  32 E7        30.17S
PRICE          SUNNY     65  37  35 CALM      30.27R
ST GEORGE      SUNNY     72  43  35 CALM      30.06S
KANAB            N/A     66  43  42 NW10      30.22S

$$

REGIONAL REPORTS     COLORADO/ARIZONA

CITY           SKY/WX    TMP DP  RH WIND       PRES   REMARKS
CRAIG, CO      SUNNY     55  41  59 CALM      30.31F
GRAND JUNCTION SUNNY     64  42  44 SE8       30.23S
RIFLE          SUNNY     56  41  57 CALM      30.30F
MONTROSE       SUNNY     65  43  44 VRB3      30.31F
CORTEZ         SUNNY     61  46  57 CALM      30.32S
PAGE, AZ       SUNNY     76  50  40 S5        30.17S
GRAND CANYON   SUNNY     65  50  58 NE3       30.31S
KINGMAN        SUNNY     79  55  43 S3        30.06R
FLAGSTAFF      SUNNY     62  50  64 CALM      30.34S

$$

REGIONAL REPORTS    NEVADA/IDAHO/WYOMING

CITY           SKY/WX    TMP DP  RH WIND       PRES   REMARKS
LAS VEGAS, NV  MOSUNNY   84  49  29 SW7       29.91R
ELY            SUNNY     58  39  49 S6        30.24S
ELKO           SUNNY     57  30  35 E5        30.14S
POCATELLO, ID  SUNNY     61  39  44 S6        30.12R
BURLEY         PTSUNNY   59  43  55 SE5       30.08R
EVANSTON, WY   PTSUNNY   59  34  39 S3        30.31F
ROCK SPRINGS   SUNNY     55  34  45 SE3       30.30F

$$


USA.gov is the U.S. government's official web portal to all federal, state and local government web resources and services.